This is the latest recevied weather packets stored in our database for station/object IK8TGH-3. If no packets are shown the sender has not sent any weather packets the latest 10 day(s).
| Time | Temp. | Humidity | Pressure | Rain* | Wind** | Luminosity | Snow |
|---|---|---|---|---|---|---|---|
| 1777385576 | 19.44° C | 50% | 1016.4 hPa | - | - | - | - |
| 1777384376 | 18.89° C | 49% | 1016.4 hPa | - | - | - | - |
| 1777383176 | 18.89° C | 46% | 1016.7 hPa | - | - | - | - |
| 1777381976 | 18.89° C | 44% | 1016.8 hPa | - | - | - | - |
| 1777380775 | 18.89° C | 43% | 1016.9 hPa | - | - | - | - |
| 1777379575 | 19.44° C | 45% | 1016.9 hPa | - | - | - | - |
| 1777378375 | 19.44° C | 45% | 1017 hPa | - | - | - | - |
| 1777377174 | 18.33° C | 41% | 1017 hPa | - | - | - | - |
| 1777375974 | 18.89° C | 42% | 1017.1 hPa | - | - | - | - |
| 1777374774 | 18.33° C | 43% | 1017.2 hPa | - | - | - | - |
| 1777373573 | 18.33° C | 50% | 1017.4 hPa | - | - | - | - |
| 1777372373 | 17.78° C | 51% | 1017.6 hPa | - | - | - | - |
| 1777371173 | 17.78° C | 51% | 1017.6 hPa | - | - | - | - |
| 1777369972 | 17.78° C | 49% | 1017.5 hPa | - | - | - | - |
| 1777368772 | 17.78° C | 50% | 1017.6 hPa | - | - | - | - |
| 1777367572 | 17.78° C | 56% | 1017.6 hPa | - | - | - | - |
| 1777366371 | 17.78° C | 57% | 1017.4 hPa | - | - | - | - |
| 1777365171 | 17.78° C | 58% | 1017.3 hPa | - | - | - | - |
| 1777363971 | 17.78° C | 58% | 1017.4 hPa | - | - | - | - |
| 1777362770 | 17.78° C | 60% | 1017.2 hPa | - | - | - | - |
| 1777361570 | 17.78° C | 63% | 1017.2 hPa | - | - | - | - |
| 1777360370 | 17.78° C | 65% | 1017.4 hPa | - | - | - | - |
| 1777359169 | 17.78° C | 67% | 1017.4 hPa | - | - | - | - |
| 1777357969 | 17.22° C | 70% | 1017.5 hPa | - | - | - | - |
| 1777356769 | 17.22° C | 70% | 1017.5 hPa | - | - | - | - |
* Rain since midnight (hover to see other rain measurements)
** Current wind speed in m/s (hover to see current wind gust speed)